CFG4AF EDDH-EDDF

Flight info

Callsign CFG4AF
Flight time 0h 48m
Altitude 30000
Route AMLUH2G AMLUH M852 DENIX DCT RIMET/N0445F310 T157 KOKEB/N0398F230 T157 KERAX KERAX5A
Aircraft A320/M-SDE3FGHIJ1LORVWXYZ/S

Departure

Time 2026-05-06 17:17
Airport Hamburg Helmut Schmidt Airport (EDDH)

Arrival

Time 2026-05-06 18:05
Airport Frankfurt Main Airport (EDDF)
Time Latitude Longitude Altitude Speed Heading
2026-05-06 16:40 53.63169 10.00365 51 ft 0 kts 87°
2026-05-06 17:02 53.63169 10.00350 51 ft 4 kts 86°
2026-05-06 17:02 53.63167 10.00305 51 ft 3 kts 86°
2026-05-06 17:03 53.63167 10.00271 51 ft 4 kts 115°
2026-05-06 17:03 53.63182 10.00250 47 ft 3 kts 176°
2026-05-06 17:03 53.63191 10.00249 51 ft 0 kts 176°
2026-05-06 17:05 53.63191 10.00250 51 ft 1 kts 176°
2026-05-06 17:06 53.63139 10.00256 51 ft 10 kts 176°
2026-05-06 17:06 53.63063 10.00252 51 ft 12 kts 200°
2026-05-06 17:06 53.62996 10.00182 48 ft 11 kts 212°
2026-05-06 17:06 53.62933 10.00117 51 ft 10 kts 212°
2026-05-06 17:07 53.62877 10.00052 49 ft 9 kts 223°
2026-05-06 17:07 53.62845 9.99964 50 ft 7 kts 244°
2026-05-06 17:07 53.62841 9.99951 50 ft 0 kts 243°
2026-05-06 17:15 53.62841 9.99949 50 ft 2 kts 243°
2026-05-06 17:15 53.62815 9.99864 48 ft 11 kts 244°
2026-05-06 17:15 53.62838 9.99767 49 ft 7 kts 331°
2026-05-06 17:16 53.62878 9.99733 49 ft 9 kts 332°
2026-05-06 17:16 53.63110 9.99535 50 ft 75 kts 333°
2026-05-06 17:16 53.63784 9.98954 47 ft 140 kts 333°
2026-05-06 17:16 53.64704 9.98106 502 ft 150 kts 336°
2026-05-06 17:17 53.65643 9.97305 1193 ft 153 kts 338°
2026-05-06 17:17 53.66629 9.96477 1731 ft 168 kts 340°
2026-05-06 17:17 53.67748 9.95542 2113 ft 191 kts 339°
2026-05-06 17:17 53.69056 9.94719 2522 ft 208 kts 358°
2026-05-06 17:18 53.70498 9.94696 3388 ft 208 kts
2026-05-06 17:18 53.71952 9.94799 4271 ft 210 kts 15°
2026-05-06 17:18 53.73160 9.96077 5053 ft 211 kts 56°
2026-05-06 17:18 53.73677 9.98405 5882 ft 215 kts 75°
2026-05-06 17:19 53.74024 10.00891 6722 ft 219 kts 79°
2026-05-06 17:19 53.74000 10.03502 7491 ft 229 kts 100°
2026-05-06 17:19 53.73411 10.06157 7928 ft 256 kts 118°
2026-05-06 17:19 53.72337 10.08724 8413 ft 279 kts 136°
2026-05-06 17:20 53.70643 10.10421 9197 ft 290 kts 158°
2026-05-06 17:20 53.68738 10.11622 10062 ft 296 kts 159°
2026-05-06 17:20 53.66723 10.12860 10422 ft 320 kts 159°
2026-05-06 17:20 53.64556 10.14181 10813 ft 339 kts 160°
2026-05-06 17:21 53.62315 10.15546 11561 ft 345 kts 160°
2026-05-06 17:21 53.60050 10.16932 12442 ft 347 kts 160°
2026-05-06 17:21 53.57781 10.18325 13359 ft 348 kts 160°
2026-05-06 17:21 53.56272 10.19252 13928 ft 349 kts 160°
2026-05-06 17:22 53.53980 10.20663 14630 ft 353 kts 161°
2026-05-06 17:22 53.51666 10.22091 15348 ft 356 kts 161°
2026-05-06 17:22 53.49321 10.23538 16016 ft 361 kts 161°
2026-05-06 17:22 53.46953 10.24994 16715 ft 364 kts 161°
2026-05-06 17:23 53.44560 10.26456 17409 ft 367 kts 162°
2026-05-06 17:23 53.42149 10.27923 18088 ft 371 kts 162°
2026-05-06 17:23 53.39710 10.29408 18688 ft 374 kts 162°
2026-05-06 17:23 53.37251 10.30909 19299 ft 378 kts 162°
2026-05-06 17:24 53.34769 10.32428 19921 ft 382 kts 162°
2026-05-06 17:24 53.32264 10.33957 20571 ft 385 kts 162°
2026-05-06 17:24 53.29735 10.35494 21184 ft 388 kts 162°
2026-05-06 17:24 53.27173 10.37047 21526 ft 395 kts 163°
2026-05-06 17:25 53.24575 10.38618 22083 ft 400 kts 163°
2026-05-06 17:25 53.21948 10.40207 22651 ft 403 kts 163°
2026-05-06 17:25 53.19298 10.41810 23208 ft 407 kts 163°
2026-05-06 17:25 53.16624 10.43427 23689 ft 410 kts 163°
2026-05-06 17:26 53.13890 10.44754 24130 ft 410 kts 172°
2026-05-06 17:26 53.11064 10.45296 24564 ft 409 kts 181°
2026-05-06 17:26 53.08225 10.45072 24994 ft 409 kts 188°
2026-05-06 17:26 53.05383 10.44662 25426 ft 411 kts 188°
2026-05-06 17:27 53.02530 10.44259 25866 ft 413 kts 188°
2026-05-06 17:27 52.99654 10.43859 26271 ft 415 kts 188°
2026-05-06 17:27 52.96767 10.43464 26678 ft 418 kts 188°
2026-05-06 17:27 52.93863 10.43073 27070 ft 420 kts 188°
2026-05-06 17:28 52.90948 10.42682 27473 ft 422 kts 188°
2026-05-06 17:28 52.88008 10.42285 27849 ft 424 kts 188°
2026-05-06 17:28 52.85060 10.41883 28230 ft 426 kts 188°
2026-05-06 17:28 52.82096 10.41477 28596 ft 428 kts 188°
2026-05-06 17:29 52.79120 10.41070 28934 ft 430 kts 188°
2026-05-06 17:29 52.76135 10.40667 29310 ft 431 kts 189°
2026-05-06 17:29 52.73139 10.40265 29661 ft 433 kts 189°
2026-05-06 17:29 52.70132 10.39862 29973 ft 434 kts 189°
2026-05-06 17:30 52.67112 10.39453 30240 ft 436 kts 189°
2026-05-06 17:30 52.64077 10.39042 30496 ft 437 kts 189°
2026-05-06 17:30 52.61041 10.38633 30725 ft 438 kts 189°
2026-05-06 17:31 52.55041 10.37839 30799 ft 424 kts 188°
2026-05-06 17:31 52.49208 10.37058 30815 ft 419 kts 189°
2026-05-06 17:32 52.43404 10.36276 30832 ft 418 kts 188°
2026-05-06 17:32 52.37609 10.35505 30829 ft 418 kts 188°
2026-05-06 17:33 52.31812 10.34735 30834 ft 418 kts 188°
2026-05-06 17:33 52.26024 10.33968 30820 ft 417 kts 188°
2026-05-06 17:34 52.20253 10.33195 30832 ft 416 kts 188°
2026-05-06 17:34 52.14480 10.32440 30821 ft 416 kts 188°
2026-05-06 17:35 52.08713 10.31682 30819 ft 416 kts 188°
2026-05-06 17:35 52.02952 10.30927 30804 ft 415 kts 188°
2026-05-06 17:36 51.94312 10.29800 30811 ft 415 kts 188°
2026-05-06 17:36 51.88571 10.29057 30808 ft 413 kts 188°
2026-05-06 17:37 51.82851 10.28302 30807 ft 412 kts 188°
2026-05-06 17:37 51.77145 10.27557 30809 ft 411 kts 188°
2026-05-06 17:38 51.71452 10.26819 30809 ft 410 kts 188°
2026-05-06 17:38 51.65759 10.26080 30804 ft 410 kts 188°
2026-05-06 17:39 51.60111 10.25360 30808 ft 410 kts 188°
2026-05-06 17:39 51.54425 10.24631 30791 ft 410 kts 187°
2026-05-06 17:40 51.48735 10.23905 30792 ft 410 kts 187°
2026-05-06 17:40 51.43046 10.23180 30792 ft 410 kts 187°
2026-05-06 17:41 51.40196 10.22813 30687 ft 411 kts 187°
2026-05-06 17:41 51.37346 10.22448 30440 ft 410 kts 187°
2026-05-06 17:41 51.34496 10.22085 30182 ft 410 kts 187°
2026-05-06 17:41 51.31648 10.21782 29936 ft 411 kts 185°
2026-05-06 17:42 51.28786 10.21639 29670 ft 412 kts 183°
2026-05-06 17:42 51.25913 10.21600 29380 ft 413 kts 182°
2026-05-06 17:42 51.23036 10.21605 29094 ft 414 kts 182°
2026-05-06 17:42 51.20156 10.21613 28812 ft 414 kts 182°
2026-05-06 17:43 51.17281 10.21602 28534 ft 412 kts 182°
2026-05-06 17:43 51.14417 10.21570 28262 ft 411 kts 183°
2026-05-06 17:43 51.11567 10.21525 27992 ft 410 kts 182°
2026-05-06 17:43 51.08714 10.21474 27710 ft 409 kts 183°
2026-05-06 17:44 51.05872 10.21418 27442 ft 408 kts 183°
2026-05-06 17:44 51.03042 10.21361 27179 ft 407 kts 183°
2026-05-06 17:44 51.00214 10.21304 26911 ft 406 kts 183°
2026-05-06 17:44 50.97395 10.21251 26650 ft 404 kts 183°
2026-05-06 17:45 50.94587 10.21201 26395 ft 403 kts 182°
2026-05-06 17:45 50.91787 10.21151 26138 ft 402 kts 183°
2026-05-06 17:45 50.88993 10.21099 25970 ft 401 kts 182°
2026-05-06 17:45 50.86214 10.20861 25704 ft 399 kts 191°
2026-05-06 17:46 50.83561 10.19640 25453 ft 397 kts 204°
2026-05-06 17:46 50.81141 10.17564 25201 ft 395 kts 214°
2026-05-06 17:46 50.78982 10.14880 24892 ft 393 kts 223°
2026-05-06 17:46 50.77132 10.11730 24318 ft 389 kts 232°
2026-05-06 17:47 50.75663 10.08158 23727 ft 387 kts 242°
2026-05-06 17:47 50.74452 10.04369 23107 ft 385 kts 242°
2026-05-06 17:47 50.73251 10.00602 22471 ft 383 kts 242°
2026-05-06 17:47 50.72056 9.96864 21895 ft 380 kts 242°
2026-05-06 17:48 50.70868 9.93159 21340 ft 377 kts 242°
2026-05-06 17:48 50.69688 9.89487 20802 ft 374 kts 242°
2026-05-06 17:48 50.68516 9.85846 20262 ft 371 kts 242°
2026-05-06 17:48 50.67352 9.82230 19764 ft 368 kts 243°
2026-05-06 17:49 50.66197 9.78653 19296 ft 364 kts 243°
2026-05-06 17:49 50.65021 9.75148 18801 ft 360 kts 239°
2026-05-06 17:49 50.63611 9.71939 18025 ft 353 kts 231°
2026-05-06 17:49 50.61948 9.69125 16981 ft 350 kts 223°
2026-05-06 17:50 50.60064 9.66733 16000 ft 346 kts 215°
2026-05-06 17:50 50.58019 9.64792 15085 ft 342 kts 208°
2026-05-06 17:50 50.55829 9.63288 14498 ft 343 kts 202°
2026-05-06 17:50 50.53636 9.61849 14037 ft 340 kts 207°
2026-05-06 17:51 50.51609 9.59977 13568 ft 337 kts 215°
2026-05-06 17:51 50.49793 9.57689 13043 ft 334 kts 223°
2026-05-06 17:51 50.48215 9.55041 12528 ft 331 kts 231°
2026-05-06 17:51 50.46902 9.52099 11999 ft 329 kts 239°
2026-05-06 17:52 50.45866 9.48914 11476 ft 327 kts 246°
2026-05-06 17:52 50.45121 9.45561 10972 ft 325 kts 253°
2026-05-06 17:52 50.44490 9.42176 10469 ft 322 kts 253°
2026-05-06 17:52 50.43855 9.38826 9972 ft 320 kts 252°
2026-05-06 17:53 50.43222 9.35514 9658 ft 311 kts 252°
2026-05-06 17:53 50.42613 9.32332 9522 ft 297 kts 252°
2026-05-06 17:53 50.42032 9.29295 9381 ft 285 kts 252°
2026-05-06 17:53 50.41472 9.26378 9209 ft 275 kts 252°
2026-05-06 17:54 50.40908 9.23532 8862 ft 272 kts 251°
2026-05-06 17:54 50.40287 9.20754 8474 ft 269 kts 249°
2026-05-06 17:54 50.39642 9.18009 8095 ft 268 kts 249°
2026-05-06 17:54 50.38995 9.15285 7683 ft 266 kts 249°
2026-05-06 17:55 50.38354 9.12576 7284 ft 264 kts 249°
2026-05-06 17:55 50.37720 9.09878 6894 ft 263 kts 249°
2026-05-06 17:55 50.37095 9.07206 6800 ft 262 kts 249°
2026-05-06 17:55 50.36466 9.04517 6803 ft 263 kts 249°
2026-05-06 17:56 50.35807 9.01864 6563 ft 260 kts 242°
2026-05-06 17:56 50.34624 8.99768 6153 ft 259 kts 214°
2026-05-06 17:56 50.32934 8.98833 5705 ft 261 kts 189°
2026-05-06 17:56 50.31117 8.98633 5209 ft 263 kts 184°
2026-05-06 17:57 50.29295 8.98537 4996 ft 261 kts 184°
2026-05-06 17:57 50.27480 8.98469 5000 ft 261 kts 184°
2026-05-06 17:57 50.25658 8.98403 5005 ft 262 kts 184°
2026-05-06 17:57 50.23835 8.98306 5001 ft 262 kts 189°
2026-05-06 17:58 50.22157 8.97373 5009 ft 256 kts 216°
2026-05-06 17:58 50.20783 8.95601 5008 ft 257 kts 223°
2026-05-06 17:58 50.19469 8.93722 4996 ft 256 kts 224°
2026-05-06 17:58 50.18162 8.91832 5005 ft 256 kts 224°
2026-05-06 17:59 50.16795 8.90062 5004 ft 257 kts 211°
2026-05-06 17:59 50.15097 8.89149 5009 ft 260 kts 195°
2026-05-06 17:59 50.13354 8.88475 4999 ft 252 kts 204°
2026-05-06 17:59 50.12093 8.86879 4990 ft 223 kts 242°
2026-05-06 18:00 50.11765 8.84651 4820 ft 206 kts 267°
2026-05-06 18:00 50.11526 8.82546 4599 ft 191 kts 250°
2026-05-06 18:00 50.11074 8.80673 4315 ft 180 kts 249°
2026-05-06 18:00 50.10650 8.78916 4053 ft 168 kts 250°
2026-05-06 18:01 50.10245 8.77215 3818 ft 167 kts 250°
2026-05-06 18:01 50.09842 8.75514 3582 ft 168 kts 251°
2026-05-06 18:01 50.09442 8.73826 3335 ft 165 kts 251°
2026-05-06 18:01 50.09179 8.72716 3182 ft 165 kts 251°
2026-05-06 18:02 50.08779 8.71026 2945 ft 167 kts 252°
2026-05-06 18:02 50.08377 8.69327 2698 ft 168 kts 252°
2026-05-06 18:02 50.07978 8.67649 2458 ft 161 kts 253°
2026-05-06 18:02 50.07606 8.66090 2263 ft 145 kts 252°
2026-05-06 18:03 50.07263 8.64676 2076 ft 136 kts 253°
2026-05-06 18:03 50.06944 8.63324 1811 ft 132 kts 254°
2026-05-06 18:03 50.06641 8.61989 1566 ft 131 kts 254°
2026-05-06 18:03 50.06303 8.60666 1401 ft 132 kts 252°
2026-05-06 18:04 50.05985 8.59332 1231 ft 131 kts 253°
2026-05-06 18:04 50.05684 8.57997 1051 ft 131 kts 253°
2026-05-06 18:04 50.05365 8.56682 837 ft 130 kts 251°
2026-05-06 18:04 50.05052 8.55370 675 ft 129 kts 252°
2026-05-06 18:05 50.04738 8.54057 478 ft 129 kts 254°
2026-05-06 18:05 50.04435 8.52756 357 ft 123 kts 250°
2026-05-06 18:05 50.04186 8.51709 333 ft 80 kts 250°
2026-05-06 18:05 50.04059 8.51203 327 ft 30 kts 244°
2026-05-06 18:06 50.03963 8.50998 326 ft 13 kts 224°
2026-05-06 18:06 50.03909 8.50920 323 ft 13 kts 221°
2026-05-06 18:06 50.03848 8.50846 326 ft 9 kts 210°
2026-05-06 18:06 50.03792 8.50855 331 ft 11 kts 140°
2026-05-06 18:07 50.03801 8.51006 332 ft 20 kts 69°
2026-05-06 18:07 50.03859 8.51242 334 ft 25 kts 70°
2026-05-06 18:07 50.03920 8.51502 336 ft 26 kts 70°
2026-05-06 18:07 50.03983 8.51761 334 ft 26 kts 69°
2026-05-06 18:08 50.04045 8.52025 337 ft 24 kts 70°
2026-05-06 18:08 50.04103 8.52270 346 ft 25 kts 69°
2026-05-06 18:08 50.04164 8.52522 349 ft 25 kts 70°
2026-05-06 18:08 50.04226 8.52780 356 ft 25 kts 69°
2026-05-06 18:09 50.04288 8.53039 358 ft 26 kts 69°
2026-05-06 18:09 50.04349 8.53294 367 ft 24 kts 69°
2026-05-06 18:09 50.04395 8.53520 375 ft 21 kts 79°
2026-05-06 18:09 50.04410 8.53736 375 ft 19 kts 84°
2026-05-06 18:10 50.04423 8.53941 375 ft 18 kts 84°
2026-05-06 18:10 50.04436 8.54133 375 ft 17 kts 84°
2026-05-06 18:10 50.04448 8.54312 374 ft 17 kts 84°
2026-05-06 18:10 50.04444 8.54531 369 ft 24 kts 104°
2026-05-06 18:11 50.04340 8.54748 365 ft 24 kts 147°
2026-05-06 18:11 50.04188 8.54844 359 ft 21 kts 161°
2026-05-06 18:11 50.04095 8.54895 355 ft 9 kts 160°
2026-05-06 18:11 50.04070 8.54910 356 ft 0 kts 159°
2026-05-06 18:13 50.04053 8.54920 354 ft 4 kts 159°
2026-05-06 18:13 50.04009 8.54946 359 ft 7 kts 159°
2026-05-06 18:14 50.03956 8.54978 352 ft 9 kts 159°
2026-05-06 18:14 50.03892 8.55017 356 ft 11 kts 159°
2026-05-06 18:14 50.03845 8.55099 352 ft 11 kts 88°
2026-05-06 18:14 50.03877 8.55231 352 ft 17 kts 68°
2026-05-06 18:15 50.03930 8.55454 357 ft 24 kts 69°
2026-05-06 18:15 50.03991 8.55710 349 ft 26 kts 69°
2026-05-06 18:15 50.04053 8.55969 351 ft 25 kts 69°
2026-05-06 18:15 50.04115 8.56227 356 ft 26 kts 70°
2026-05-06 18:16 50.04176 8.56483 359 ft 25 kts 69°
2026-05-06 18:16 50.04238 8.56742 359 ft 26 kts 70°
2026-05-06 18:16 50.04301 8.57004 365 ft 26 kts 70°
2026-05-06 18:16 50.04362 8.57263 362 ft 26 kts 70°
2026-05-06 18:17 50.04425 8.57524 361 ft 27 kts 69°
2026-05-06 18:17 50.04486 8.57783 368 ft 25 kts 70°
2026-05-06 18:17 50.04548 8.58042 366 ft 23 kts 70°
2026-05-06 18:17 50.04599 8.58253 369 ft 15 kts 70°
2026-05-06 18:18 50.04631 8.58388 372 ft 11 kts 70°
2026-05-06 18:18 50.04643 8.58441 374 ft 0 kts 70°
2026-05-06 18:19 50.04651 8.58473 370 ft 10 kts 69°
2026-05-06 18:19 50.04679 8.58591 370 ft 11 kts 69°
2026-05-06 18:20 50.04706 8.58702 371 ft 11 kts 68°
2026-05-06 18:20 50.04780 8.58747 372 ft 16 kts 340°
2026-05-06 18:20 50.04886 8.58683 363 ft 13 kts 340°
2026-05-06 18:20 50.04968 8.58744 365 ft 17 kts 68°
2026-05-06 18:21 50.05010 8.58920 361 ft 17 kts 70°
2026-05-06 18:21 50.05043 8.59063 364 ft 11 kts 75°
2026-05-06 18:21 50.05011 8.59133 361 ft 7 kts 159°
2026-05-06 18:21 50.04985 8.59147 365 ft 1 kts 159°
2026-05-06 18:22 50.04983 8.59149 365 ft 0 kts 160°
2026-05-06 18:22 50.04979 8.59151 364 ft 0 kts 160°